Pagina principale
METAR-TAF:

METAR-TAF

Aeroporti :

Carrollton, Georgia, Stati Uniti

latitudine: 33-37-54N, longitudine: 085-09-08W, altezza: 354 m

Osservazione

Il bollettino è stato emesso 23 minuti fa, alle 23:35 UTC
Vento calmo
Temperature 21°C
Umidità 28%
Pressione 1021 hPa
Visibilità: 16.1 km
Cielo sereno

METAR: KCTJ 242335Z AUTO 00000KT 10SM CLR 21/02 A3015 RMK AO2 T02050023

Ora: 19:58 (23:58 UTC)


TAF: mancante

Osservazioni e previsioni meteorologiche di più di 4000 aeroporti (messaggi METAR e TAF).

Le stazioni disponibili sono rappresentate dai dischi gialli e rossi sulla carta.

Puntare il mouse per vedere il nome della stazione.

Clicca sopra per visualizzare le osservazioni e previsioni meteorologiche.

Per cambiare la mappa : fare clic sui pulsanti verdi con una croce nera per ingrandire, il pulsante verde con un trattino per diminuire, o sulla freccia verde per le mappe adiacenti.


METAR-TAF: